Location: Lussas
(44.6119°N, 4.4726°E)
Time: 14:01:21
(UTC+00:00)

Meteor 2-17 Rocket - Pass Details

Date: 26 November 2020
Orbit: 936 x 955 km, 82.5° (Epoch: 26 January)

Event Time Altitude Azimuth Distance (km) Brightness Sun altitude
Rises 04:59:24 0° 184° (S) 3,580 7.5 -19.8°
Reaches altitude 10° 05:01:51 10° 184° (S) 2,639 6.8 -19.4°
Maximum altitude 05:07:53 84° 97° (E) 947 4.4 -18.3°
Drops below altitude 10° 05:13:58 10° 10° (N) 2,660 6.8 -17.3°
Sets 05:16:28 0° 10° (N) 3,610 7.5 -16.8°
